User: anonymous   Login
Location: Unspecified
(0.0000°N, 0.0000°E)
Time: 12:35:46
(UTC+00:00)
Language:

PAKSAT 1R - Orbit

View from above orbital plane
View from above orbital plane
View from above satellite
View from above satellite

Ground track
Ground track

The orbit data is extracted from the following two-line orbital elements,

1 37779U 11042A   14304.13168435  .00000141  00000-0  00000+0 0  6806
2 37779 000.0729 070.9645 0004316 161.2070 252.5908 01.00270151 11814
Epoch (UTC): 31 October 2014 03:09:37
Eccentricity: 0.0004316
inclination: 0.0729°
perigee height: 35768 km
apogee height: 35805 km
right ascension of ascending node: 70.9645°
argument of perigee: 161.2070°
revolutions per day: 1.00270151
mean anomaly at epoch: 252.5908°
orbit number at epoch: 1181

The dashed part of the orbit path shows where the satellite is in the earth's shadow,  

DLR